Temp
69 57 53 60 63 66 66 64 63 69 76 71 67 68 72 76 71 73 76 77 76 77 78 80 80 80 79 78 79 80 80 80 76 76 75 75 76 76 77 78 80 78 78 78
61 55 66 72 71 69 66 63 62 70 75 68 66 65 72 73 70 74 76 76 75 73 75 78 77 78 78 77 76 78 79 78 79 80 76 77 77 77 78 78 78 78 78 76
58 65 76 73 69 67 65 61 62 62 70 69 65 60 65 72 74 74 71 76 75 74 73 75 76 76 77 76 74 74 77 78 78 78 77 77 79 78 76 75 74 76 78 77
63 71 72 70 68 69 58 70 70 68 61 52 61 47 59 66 69 72 70 73 74 74 75 76 74 74 75 76 75 74 73 73 78 79 77 77 76 72 75 77 74 74 75 76
62 66 66 66 68 73 66 72 68 66 58 51 59 48 55 63 64 68 68 72 72 74 74 73 74 75 76 77 72 71 73 74 74 73 74 75 76 74 76 77 74 69 72 73
66 75 72 70 74 74 76 70 67 60 54 45 52 52 54 60 63 68 70 73 73 73 73 73 74 74 74 73 71 71 74 69 71 74 73 71 70 71 72 72 73 71 71 70
64 65 69 72 63 66 66 56 48 45 40 41 57 52 52 51 53 72 70 70 72 73 72 72 71 71 70 69 69 70 69 71 72 74 72 71 70 69 69 69 70 71 70 71
49 47 62 69 64 55 59 52 47 36 38 43 54 49 51 58 56 60 56 64 66 64 70 70 71 72 69 69 68 68 67 66 68 73 72 71 70 70 68 67 68 70 70 72
47 50 66 69 68 64 58 49 58 47 46 40 46 55 57 57 54 54 53 55 59 62 69 70 72 70 67 67 67 67 66 66 67 66 65 69 70 70 69 69 69 69 69 70
53 43 60 65 63 59 52 60 42 44 33 31 42 47 47 50 49 53 51 52 55 59 64 69 71 68 70 67 66 66 66 65 66 66 66 66 66 66 67 69 67 68 68 68
53 45 49 58 52 47 50 46 48 46 42 35 31 40 52 52 51 51 51 52 52 54 63 69 70 70 67 66 65 65 66 65 65 64 65 65 65 66 65 65 66 67 67 68
51 45 38 47 59 61 52 46 44 36 38 43 38 38 53 53 52 51 51 53 52 53 56 63 68 64 65 64 64 64 64 64 65 65 64 63 65 65 64 63 64 66 66 65
50 40 33 40 48 51 43 47 47 46 42 37 34 36 54 57 53 53 52 53 55 56 58 63 66 64 63 63 64 63 64 63 64 65 63 63 61 63 63 63 63 64 64 65
56 43 38 31 39 46 46 50 52 47 38 39 39 41 48 51 52 54 54 55 57 58 63 64 62 62 61 61 62 63 62 62 62 63 62 61 61 61 62 64 63 63 64 63
49 38 43 47 52 53 51 52 50 47 49 43 49 49 47 50 51 55 61 63 65 65 65 61 59 59 61 60 59 61 61 62 61 60 60 59 61 62 62 65 64 64 63 64
50 37 43 42 51 52 48 52 54 53 54 54 53 50 55 56 58 58 60 62 61 62 61 60 61 60 60 60 61 62 60 60 60 59 59 61 60 61 61 61 63 63 62 62
43 39 36 32 47 47 37 49 53 52 54 52 44 51 55 54 56 54 54 57 57 57 58 58 58 57 57 56 58 56 57 58 59 59 61 62 61 61 60 61 63 62 60 60
42 39 37 31 37 26 47 58 58 54 53 54 55 56 58 55 54 55 55 54 55 56 56 55 54 54 54 54 55 56 56 56 57 57 59 60 61 60 60 59 58 58 58 59
48 41 33 27 29 40 48 53 53 48 45 54 52 55 56 56 54 49 56 57 53 53 54 54 54 53 52 53 54 54 53 54 54 56 56 59 59 58 59 57 55 56 56 56
52 45 36 32 27 25 41 56 61 56 35 51 53 51 51 52 40 43 52 55 55 54 54 53 54 54 52 52 52 52 51 52 52 55 56 57 56 55 55 55 54 54 56 56
38 40 32 28 26 36 51 58 60 35 35 50 52 51 49 45 46 50 53 54 54 53 54 53 52 51 51 52 52 50 51 50 53 56 56 55 54 52 53 52 52 53 53 54
36 34 31 32 27 26 56 55 43 44 47 51 51 50 50 51 53 52 52 51 52 51 53 54 51 51 51 52 51 51 50 52 54 55 54 54 52 54 58 52 51 52 51 52
34 39 35 38 36 46 48 49 51 53 50 51 50 51 51 49 50 51 50 51 51 52 53 55 53 50 52 54 54 49 51 52 53 52 52 52 53 54 54 51 51 49 49 49
47 48 40 39 46 48 52 53 53 56 53 52 53 52 51 47 49 49 50 49 50 54 52 52 53 50 53 52 55 56 52 54 53 50 50 50 50 50 51 52 53 49 47 47
45 47 43 40 47 50 52 53 53 56 55 53 53 52 50 49 48 49 50 51 52 53 53 52 49 52 53 55 54 52 53 52 50 50 49 49 50 49 49 49 49 49 49 48
45 45 35 34 49 47 47 53 56 51 50 51 50 49 51 50 49 50 46 47 50 51 52 53 52 52 53 54 51 54 52 52 49 48 49 48 48 48 49 48 48 46 45 45
MSLP
1008.02 1008.77 1008.85 1008.75 1008.45 1008.08 1007.88 1007.26 1006.35 1005.12 1004.00 1003.71 1002.66 1003.24 1003.22 1002.91 1003.17 1003.22 1003.54 1004.14 1005.69 1006.17 1006.25 1006.17 1006.56 1006.96 1007.23 1007.42 1007.23 1007.36 1008.22 1009.02 1009.18 1009.52 1010.01 1010.50 1010.85 1011.25 1011.33 1011.71 1011.68 1011.98 1012.21 1012.45
1008.47 1008.42 1008.02 1007.73 1007.38 1007.22 1007.00 1006.63 1005.94 1004.90 1003.91 1004.06 1003.79 1003.66 1003.19 1003.08 1003.21 1003.46 1003.58 1004.39 1005.75 1006.41 1006.70 1006.88 1006.99 1007.30 1007.61 1007.71 1007.70 1008.00 1008.30 1008.67 1008.94 1009.33 1010.00 1010.37 1010.81 1011.11 1011.32 1011.61 1011.59 1011.75 1011.99 1012.18
1008.16 1007.56 1006.97 1006.89 1006.67 1006.46 1006.21 1006.05 1005.64 1005.20 1004.34 1004.09 1004.31 1004.33 1003.94 1003.29 1003.22 1003.49 1004.05 1003.92 1005.62 1006.43 1006.94 1007.14 1007.54 1007.89 1008.22 1008.73 1009.11 1009.00 1008.85 1008.92 1009.10 1009.64 1010.01 1010.43 1010.78 1011.19 1011.43 1011.53 1011.63 1011.61 1011.75 1012.02
1007.52 1006.97 1006.63 1006.20 1005.81 1005.79 1005.39 1005.24 1005.16 1005.22 1005.39 1005.26 1005.25 1005.45 1004.93 1004.11 1003.95 1004.10 1004.70 1004.87 1005.66 1006.58 1007.34 1007.79 1008.19 1008.54 1008.89 1009.33 1010.04 1010.27 1010.11 1010.04 1009.63 1009.59 1010.08 1010.51 1010.88 1011.35 1011.26 1011.27 1011.35 1011.40 1011.51 1011.51
1007.25 1006.83 1006.36 1005.81 1005.36 1005.05 1004.69 1004.93 1005.17 1005.56 1006.03 1006.39 1006.08 1006.48 1005.88 1005.18 1005.05 1004.90 1004.95 1005.17 1005.92 1006.61 1007.34 1008.20 1008.80 1009.26 1009.54 1009.88 1010.95 1011.42 1011.08 1010.77 1010.60 1010.74 1010.60 1010.83 1011.09 1011.12 1011.11 1011.18 1011.32 1011.76 1011.42 1011.43
1007.19 1006.37 1006.14 1005.52 1005.03 1004.91 1004.77 1004.94 1005.27 1005.89 1006.78 1007.25 1007.25 1007.47 1007.32 1007.27 1006.48 1005.41 1005.21 1005.58 1006.19 1007.04 1007.73 1008.35 1009.04 1009.70 1010.36 1010.79 1011.68 1012.17 1011.99 1011.79 1011.55 1011.43 1011.50 1011.62 1011.82 1011.78 1011.60 1011.59 1011.67 1011.80 1011.76 1011.94
1007.22 1006.73 1006.64 1006.53 1006.09 1005.62 1005.88 1005.80 1006.80 1007.76 1008.13 1007.73 1007.96 1008.51 1009.40 1009.38 1008.81 1005.68 1005.71 1006.49 1007.03 1007.37 1008.16 1008.96 1009.71 1010.37 1010.97 1011.86 1012.51 1012.82 1012.43 1012.41 1012.38 1012.20 1012.14 1012.22 1012.24 1012.32 1012.28 1012.25 1012.15 1011.98 1011.99 1011.97
1008.51 1007.86 1007.67 1007.64 1007.66 1007.87 1008.03 1008.70 1008.81 1008.72 1009.57 1009.23 1009.34 1009.54 1010.50 1010.90 1010.22 1009.80 1009.58 1008.99 1008.54 1009.02 1009.29 1009.70 1009.95 1010.42 1011.77 1012.74 1013.21 1013.35 1012.98 1012.92 1012.82 1012.76 1012.76 1012.65 1012.70 1012.66 1012.70 1012.66 1012.40 1012.24 1011.98 1011.91
1010.28 1009.56 1008.77 1008.79 1008.59 1008.86 1008.70 1010.06 1010.63 1010.53 1010.39 1010.56 1010.39 1010.17 1010.78 1010.86 1011.18 1012.59 1012.64 1012.58 1012.61 1011.32 1010.73 1010.91 1010.35 1011.02 1012.03 1013.18 1013.56 1013.66 1013.52 1013.31 1013.28 1013.27 1013.26 1013.17 1013.04 1012.95 1012.89 1012.60 1012.43 1012.21 1011.94 1011.72
1011.81 1011.39 1010.57 1009.96 1010.00 1010.13 1010.80 1010.95 1012.60 1012.81 1013.02 1012.76 1011.72 1011.47 1011.80 1012.65 1013.67 1014.04 1014.56 1015.08 1015.00 1014.98 1013.45 1013.23 1011.02 1012.28 1012.18 1013.43 1013.74 1013.70 1013.97 1014.03 1013.73 1013.56 1013.49 1013.45 1013.37 1013.27 1013.12 1012.90 1012.64 1012.41 1012.04 1011.83
1012.97 1012.81 1012.13 1011.53 1011.22 1011.78 1012.46 1012.42 1013.55 1014.21 1014.49 1014.16 1013.41 1013.34 1012.60 1012.84 1013.96 1015.22 1016.14 1016.75 1016.43 1017.12 1015.98 1014.80 1013.01 1012.38 1012.78 1013.71 1014.24 1014.32 1014.28 1014.36 1014.25 1013.98 1013.86 1013.75 1013.61 1013.47 1013.31 1013.16 1012.85 1012.49 1012.18 1011.89
1013.88 1013.88 1013.37 1012.72 1011.96 1012.14 1014.22 1014.73 1015.17 1015.98 1015.23 1014.84 1014.15 1014.24 1013.58 1013.56 1013.91 1015.05 1015.83 1016.51 1017.03 1017.83 1016.22 1016.30 1013.29 1014.13 1013.91 1014.23 1014.62 1014.99 1015.16 1015.01 1014.75 1014.39 1014.20 1014.19 1013.93 1013.68 1013.54 1013.36 1013.06 1012.78 1012.55 1012.34
1014.57 1014.94 1014.73 1013.62 1013.00 1013.24 1014.20 1014.58 1015.00 1015.50 1016.09 1014.94 1014.23 1014.25 1014.10 1014.20 1014.85 1015.41 1015.78 1016.58 1016.71 1016.95 1016.31 1015.57 1014.62 1014.71 1014.54 1014.92 1015.47 1015.91 1015.78 1015.61 1015.27 1015.01 1014.80 1014.57 1014.39 1014.18 1013.89 1013.41 1013.11 1012.84 1012.66 1012.37
1014.83 1015.72 1016.07 1015.65 1014.87 1014.50 1014.22 1014.05 1013.75 1014.42 1014.03 1013.72 1013.42 1013.86 1014.00 1013.69 1014.04 1014.87 1015.64 1015.95 1016.20 1015.85 1015.23 1014.74 1014.93 1014.84 1014.76 1016.14 1016.35 1016.36 1016.20 1015.66 1015.58 1015.63 1015.42 1015.03 1014.73 1014.25 1013.90 1013.47 1013.02 1012.87 1012.63 1012.47
1015.16 1016.04 1016.16 1015.76 1014.83 1013.97 1013.62 1013.30 1013.31 1013.41 1012.61 1012.58 1012.14 1012.42 1013.15 1013.07 1013.33 1013.48 1013.75 1013.87 1014.70 1014.39 1014.66 1015.45 1015.56 1015.38 1015.85 1016.68 1016.38 1016.36 1016.17 1015.94 1015.83 1015.91 1015.69 1015.24 1014.63 1014.16 1013.70 1013.47 1012.94 1012.67 1012.51 1012.40
1015.65 1016.32 1016.57 1016.14 1015.18 1014.14 1013.12 1012.73 1012.16 1012.18 1011.37 1011.24 1011.47 1011.86 1012.22 1012.20 1012.45 1012.94 1013.25 1013.55 1014.09 1014.73 1015.30 1015.79 1015.76 1015.91 1016.33 1016.60 1016.33 1016.54 1016.41 1016.16 1015.85 1015.81 1015.66 1015.17 1014.69 1014.32 1013.87 1013.37 1012.87 1012.54 1012.46 1012.34
1016.49 1016.72 1017.21 1016.73 1015.85 1014.74 1013.45 1011.76 1011.12 1011.00 1011.10 1011.33 1011.56 1011.63 1011.54 1012.15 1013.08 1013.71 1014.08 1014.42 1015.09 1015.57 1015.87 1015.99 1016.14 1016.52 1016.91 1017.03 1016.92 1017.02 1016.75 1016.49 1016.27 1015.91 1015.45 1015.10 1014.57 1014.36 1014.03 1013.45 1012.96 1012.64 1012.54 1012.34
1016.46 1017.08 1017.54 1017.63 1016.95 1015.39 1013.26 1011.84 1011.14 1011.39 1012.04 1011.72 1011.44 1011.51 1011.46 1012.72 1013.83 1014.23 1014.74 1015.22 1015.68 1015.95 1016.39 1016.71 1016.80 1017.01 1017.27 1017.27 1017.16 1016.90 1016.78 1016.71 1016.52 1016.24 1015.87 1015.49 1015.06 1014.39 1013.86 1013.67 1013.50 1013.03 1012.33 1012.40
1015.58 1016.86 1017.86 1018.07 1017.43 1015.72 1013.42 1012.34 1012.00 1012.03 1013.15 1012.97 1012.47 1012.69 1012.98 1013.63 1014.07 1015.50 1015.45 1015.70 1016.14 1016.32 1016.50 1016.75 1016.91 1016.95 1016.96 1017.02 1017.07 1017.05 1016.87 1016.60 1016.37 1016.02 1015.62 1015.26 1014.95 1014.70 1014.32 1013.97 1013.54 1013.27 1013.05 1012.60
1015.05 1016.20 1017.77 1018.17 1017.96 1016.47 1014.71 1013.13 1012.46 1012.43 1013.79 1014.33 1013.96 1014.27 1014.26 1014.08 1015.29 1016.21 1015.99 1015.95 1016.19 1016.32 1016.39 1016.51 1016.57 1016.62 1016.74 1016.68 1016.64 1016.62 1016.47 1016.14 1015.96 1015.55 1015.22 1014.97 1014.80 1014.73 1014.46 1014.11 1013.88 1013.41 1012.90 1012.56
1015.76 1016.71 1017.49 1017.92 1017.81 1016.24 1014.41 1013.55 1013.07 1013.82 1015.25 1014.69 1014.69 1015.00 1015.45 1015.93 1016.29 1016.31 1016.16 1016.08 1016.18 1016.26 1016.16 1016.26 1016.47 1016.68 1016.65 1016.51 1016.38 1016.46 1016.22 1016.13 1015.60 1015.19 1015.01 1014.88 1014.57 1014.44 1014.11 1013.75 1013.45 1013.13 1012.94 1012.61
1016.30 1017.06 1017.38 1017.62 1017.47 1016.31 1014.52 1013.92 1014.22 1014.57 1014.68 1014.82 1015.05 1015.40 1015.77 1016.15 1016.25 1016.33 1016.49 1016.63 1016.42 1016.19 1015.97 1015.94 1016.40 1016.48 1016.36 1016.26 1016.11 1016.10 1015.94 1015.39 1015.02 1014.80 1014.65 1014.45 1014.18 1013.90 1013.57 1013.50 1013.17 1012.89 1012.71 1012.42
1016.32 1016.94 1017.61 1017.45 1016.45 1015.61 1015.16 1015.28 1014.59 1014.68 1014.74 1015.03 1015.38 1015.70 1015.97 1016.42 1016.54 1016.47 1016.46 1016.53 1016.37 1016.25 1016.18 1015.95 1016.06 1016.23 1015.98 1015.84 1015.75 1015.81 1015.33 1015.06 1014.81 1014.52 1014.30 1014.05 1013.70 1013.41 1013.07 1012.95 1012.68 1012.56 1012.31 1012.13
1016.32 1016.50 1017.09 1017.33 1016.15 1015.47 1014.81 1015.08 1015.55 1015.13 1015.43 1015.36 1015.69 1016.06 1016.26 1016.57 1016.68 1016.66 1016.71 1016.71 1016.60 1016.32 1016.17 1016.12 1016.10 1016.04 1015.77 1015.56 1015.38 1015.13 1014.80 1014.40 1014.22 1014.14 1013.94 1013.68 1013.43 1013.02 1012.60 1012.32 1012.13 1011.90 1011.81 1011.74
1016.47 1016.00 1016.07 1016.28 1015.62 1015.68 1015.49 1015.13 1015.55 1015.18 1015.64 1015.76 1016.09 1016.34 1016.62 1016.79 1016.85 1016.82 1016.95 1017.01 1016.83 1016.56 1016.43 1016.27 1016.12 1015.90 1015.53 1015.28 1014.96 1014.58 1014.21 1013.96 1013.88 1013.79 1013.56 1013.27 1013.01 1012.73 1012.36 1011.95 1011.61 1011.47 1011.22 1011.18
1015.97 1015.65 1015.72 1015.51 1014.81 1014.67 1015.01 1015.02 1014.98 1015.33 1015.91 1016.22 1016.46 1016.56 1016.62 1016.85 1017.09 1017.08 1017.27 1017.10 1016.83 1016.74 1016.56 1016.28 1016.01 1015.67 1015.27 1015.02 1014.58 1014.22 1013.71 1013.53 1013.49 1013.39 1013.19 1013.01 1012.70 1012.33 1011.94 1011.61 1011.24 1010.85 1010.84 1010.65
Wind_Speed
7 3 6 12 12 13 13 17 17 16 17 11 11 8 7 9 2 6 7 5 13 12 7 8 9 7 7 7 9 3 10 9 6 3 4 2 3 1 1 3 4 8 8 8
5 8 12 13 13 12 12 15 15 15 16 5 6 6 7 5 3 8 10 9 14 9 9 9 9 9 8 7 7 9 3 8 6 5 3 3 3 3 3 3 4 5 7 7
9 10 13 14 16 15 13 9 10 9 12 7 7 5 6 4 7 5 3 12 11 12 10 11 12 9 12 16 16 13 7 3 6 7 3 2 1 1 1 2 3 5 7 5
10 12 14 16 16 11 7 10 13 10 6 9 2 6 6 6 12 8 8 16 14 14 14 13 11 11 15 16 15 13 12 12 2 5 2 2 3 4 4 3 4 4 7 8
13 10 13 15 16 16 17 10 11 7 6 2 12 1 8 6 9 10 10 11 13 18 18 16 14 14 15 17 12 8 9 13 13 13 6 1 2 2 2 2 5 6 6 4
12 13 13 18 20 19 18 14 9 4 3 7 5 6 7 9 6 5 9 18 20 18 18 17 15 16 14 13 9 8 11 10 10 12 11 10 9 7 5 5 3 3 3 5
11 10 5 17 16 13 19 3 5 7 3 7 7 4 6 16 25 3 17 16 18 16 16 17 17 14 13 10 8 7 9 10 9 13 12 10 9 9 7 6 4 5 1 3
5 7 10 19 9 5 8 5 5 6 6 3 6 2 2 10 19 26 29 13 14 10 13 14 15 16 11 8 7 6 8 8 8 9 9 8 7 6 5 5 4 3 3 3
6 5 19 14 13 2 6 5 9 9 4 4 4 4 1 16 22 22 25 26 21 8 8 9 16 14 10 7 6 6 6 7 7 7 7 7 5 5 5 6 5 5 5 5
8 6 7 15 7 10 1 1 4 7 1 4 3 1 7 1 8 13 21 19 22 23 16 6 12 10 10 8 7 9 8 6 6 6 6 5 6 6 6 5 5 5 5 6
7 3 7 9 2 2 7 5 3 5 3 2 4 1 6 5 8 7 8 9 14 19 8 12 10 13 13 9 8 9 9 7 8 7 6 6 5 5 6 6 6 5 5 7
2 4 5 12 12 7 10 3 4 2 5 6 4 0 3 9 10 12 6 3 7 6 13 16 12 9 10 10 9 9 8 8 8 7 7 6 7 5 5 6 7 7 4 3
4 4 6 9 5 7 6 2 4 6 9 9 2 2 5 7 9 11 14 13 8 9 10 9 2 6 8 9 8 7 8 7 8 7 7 8 7 7 7 3 5 6 7 4
6 2 3 5 8 3 3 8 4 5 5 5 5 3 5 6 9 12 11 12 12 12 14 4 6 8 9 7 6 6 7 7 7 8 8 8 8 7 6 5 3 5 5 6
5 4 5 10 13 15 8 11 9 13 15 6 4 6 11 11 10 10 11 7 9 10 5 8 7 7 7 6 6 6 7 7 6 7 8 8 8 8 7 6 5 4 4 4
3 3 6 7 13 16 12 15 14 25 11 9 7 3 7 6 8 8 10 8 2 12 12 9 9 8 6 6 6 6 7 6 5 6 7 7 8 8 9 8 7 4 2 4
4 2 3 4 10 14 8 6 4 6 8 4 4 3 4 8 10 8 12 14 12 10 8 7 7 7 6 6 5 5 6 6 8 8 7 7 7 7 8 8 8 4 4 3
5 3 1 4 7 4 7 6 6 5 12 14 6 1 8 12 14 14 11 10 8 8 8 7 6 5 5 4 7 8 6 6 6 7 9 10 12 9 7 7 7 10 3 3
10 5 1 3 3 9 12 4 5 4 6 14 18 13 12 14 16 7 7 8 8 5 4 2 4 2 2 3 5 4 4 5 6 8 6 8 9 10 11 8 6 5 6 6
10 6 6 1 1 4 7 10 8 7 2 7 12 12 11 10 7 1 6 6 6 6 4 5 4 4 4 4 2 5 6 6 7 6 7 6 6 6 7 8 8 5 5 6
2 1 7 3 3 6 7 8 5 2 5 4 6 7 9 6 3 1 4 5 5 3 5 5 5 3 3 4 4 6 7 7 7 6 6 7 7 7 7 7 5 5 6 7
6 3 4 3 3 6 6 4 4 6 2 4 6 6 7 5 5 6 7 7 5 5 4 4 3 3 5 6 5 7 8 7 7 7 7 8 7 7 8 7 6 6 6 6
1 4 3 0 5 4 2 7 4 2 5 5 7 6 7 6 5 5 5 7 6 7 6 4 2 4 6 6 6 7 8 7 7 7 7 7 7 7 7 6 7 5 5 5
3 3 2 2 4 9 2 5 7 4 6 8 8 6 5 4 5 6 5 4 5 3 4 3 4 6 6 6 8 8 7 7 6 7 7 6 6 7 6 5 6 5 5 5
5 4 5 4 6 11 6 3 9 5 7 8 5 5 7 6 5 4 5 7 6 5 6 5 5 6 6 8 9 7 8 7 6 6 6 6 5 6 6 6 5 4 5 5
3 3 2 4 3 3 8 9 4 9 8 7 5 3 4 6 8 6 6 4 4 5 7 8 6 7 7 10 7 10 6 4 5 5 4 4 5 5 5 5 6 4 7 8
Wind_Direction
262 195 235 244 228 234 253 273 282 289 289 317 171 179 236 252 236 137 151 177 120 113 106 82 100 119 80 48 40 140 136 177 160 119 122 123 172 195 286 232 226 190 179 171
276 248 240 254 260 260 258 258 274 283 285 307 298 234 218 273 266 200 176 172 137 125 116 102 88 77 81 55 31 50 91 139 163 157 140 135 154 205 193 200 175 151 179 171
242 260 271 253 251 258 261 270 272 263 307 318 319 294 221 239 299 272 98 115 123 133 124 105 93 78 70 57 36 19 36 21 149 149 152 169 155 303 206 211 190 181 170 168
265 276 269 273 281 275 244 256 273 273 287 285 59 284 277 220 245 264 144 117 127 108 96 84 74 69 70 65 44 26 33 26 4 163 146 139 185 185 230 201 205 185 178 187
275 271 272 276 267 277 274 233 259 277 259 268 278 266 271 269 244 232 163 136 113 113 107 94 80 82 82 69 52 17 33 39 36 34 9 56 244 270 280 274 203 166 206 167
266 273 272 279 284 283 282 274 257 275 237 264 237 208 275 276 275 179 148 125 118 114 108 102 89 80 74 76 63 33 47 40 38 41 37 44 41 12 1 346 12 183 210 191
286 259 25 32 355 339 346 263 284 255 287 223 228 252 82 9 0 239 135 118 114 114 111 104 98 88 78 62 76 64 49 40 44 49 37 39 40 32 16 6 359 3 175 224
2 354 40 341 334 237 323 46 266 217 216 271 355 319 59 45 25 21 31 26 73 69 84 109 111 99 96 98 108 101 85 72 57 56 40 39 36 32 24 1 351 351 323 240
344 312 331 343 345 25 280 307 319 295 138 66 217 226 69 26 35 28 23 28 9 27 74 68 107 118 115 102 103 100 87 91 85 77 56 40 33 34 13 355 3 0 350 328
335 314 318 320 24 341 260 272 10 359 82 222 224 118 229 2 59 33 34 22 13 9 20 354 71 86 88 70 41 50 50 44 52 71 63 56 34 23 9 360 350 348 339 329
14 341 309 343 183 161 345 15 16 179 116 301 313 129 306 337 113 78 74 30 28 327 27 350 38 58 65 59 50 24 24 34 27 41 36 39 24 21 14 3 340 332 348 344
72 257 294 286 292 30 110 19 69 320 315 236 214 211 114 129 147 145 158 207 143 287 335 315 33 39 48 49 36 21 12 19 14 9 19 12 355 5 16 2 353 345 334 341
350 344 333 337 11 63 89 242 223 254 227 248 76 192 85 117 143 164 172 179 191 227 236 240 41 80 62 45 38 17 3 10 5 358 3 351 345 346 319 336 344 352 347 314
109 230 234 240 268 262 296 301 266 256 254 228 215 153 205 170 161 160 176 178 205 220 223 169 74 66 59 42 28 17 3 8 360 355 345 342 325 315 314 289 333 327 333 349
144 220 290 291 291 300 244 263 268 260 268 278 278 188 205 205 194 206 185 140 186 192 121 86 68 58 52 40 27 13 356 348 359 349 337 319 313 308 307 298 278 294 320 334
353 309 331 314 310 300 329 317 223 235 269 294 306 84 148 145 121 127 160 186 165 76 77 63 53 43 35 18 8 342 339 331 330 322 306 309 313 316 309 305 272 260 297 339
298 326 354 275 313 325 308 267 343 26 14 7 30 91 104 74 91 89 77 72 67 66 61 52 42 44 37 20 7 351 332 333 336 308 296 295 308 313 309 315 308 281 296 325
241 268 231 276 323 254 247 343 47 29 35 3 314 346 100 95 77 64 58 72 63 56 47 34 40 50 39 6 341 318 331 353 343 334 336 339 334 317 318 338 345 309 276 262
186 184 246 165 257 289 311 29 17 43 59 17 42 57 69 99 79 39 58 52 83 74 72 29 72 46 342 358 330 336 338 317 304 299 303 316 320 317 326 318 317 324 308 303
175 158 143 221 264 269 306 342 13 350 69 358 57 38 25 23 60 240 76 82 68 26 53 30 359 358 339 321 348 324 300 302 289 297 290 301 314 309 315 321 315 301 277 263
21 215 196 190 220 273 235 255 323 282 204 78 58 65 52 60 145 266 47 40 73 35 338 13 343 339 330 330 316 304 285 278 273 283 292 292 293 298 290 287 290 301 313 300
171 172 231 165 211 272 342 27 4 186 104 76 65 76 73 53 15 20 22 11 358 339 324 326 322 323 302 292 295 285 273 267 272 269 267 271 270 274 285 283 284 288 295 300
52 155 229 248 218 235 45 340 359 334 139 91 86 61 46 37 13 357 1 341 327 325 320 316 303 282 287 296 292 285 278 275 271 268 273 274 279 277 272 270 277 273 266 263
356 135 138 343 330 308 142 101 18 83 46 73 65 59 51 33 358 339 337 313 303 307 317 318 310 284 273 274 274 276 277 279 272 281 273 277 274 274 274 275 271 259 259 259
244 165 195 209 216 291 354 107 209 86 81 78 76 47 34 21 333 303 0 6 345 355 351 328 303 291 303 315 292 280 279 283 296 285 286 286 275 285 286 269 253 264 257 239
274 284 150 246 8 133 173 182 80 96 86 72 61 19 9 6 353 26 344 318 328 348 323 321 309 307 310 307 301 299 291 318 304 301 295 280 285 286 277 283 295 280 239 222